Location: Monteux
(44.0348°N, 4.9972°E)
Time: 10:35:18
(UTC+00:00)

X-37B - Pass Details

Date: 03 October 2021
Orbit: 385 x 389 km, 45.0° (Epoch: 13 October)

Event Time Altitude Azimuth Distance (km) Brightness Sun altitude
Exits shadow 03:57:24 44° 170° (S) 542 1.2 -19.2°
Drops below altitude 10° 04:00:01 10° 126° (SE) 1,409 4.0 -18.7°
Sets 04:02:07 0° 120° (ESE) 2,262 5.2 -18.3°
